Location: Borz?cin
(51.1714°N, 19.6030°E)
Time: 23:12:05
(UTC+00:00)

Cosmos 2100 Rocket - Pass Details

Date: 19 May 2025
Orbit: 954 x 1000 km, 82.9° (Epoch: 16 June)

Event Time Altitude Azimuth Distance (km) Brightness Sun altitude
Rises 22:41:05 0° 350° (N) 3,721 8.6 -18.8°
Reaches altitude 10° 22:43:38 10° 352° (N) 2,763 7.6 -18.8°
Maximum altitude 22:49:59 75° 79° (ENE) 1,018 4.1 -18.8°
Enters shadow 22:53:28 28° 160° (SSE) 1,735 4.8 -18.8°
